{"data":{"norad_id":48433,"intl_designator":"2021-040F","name":"STARLINK-2699","alt_names":[],"object_type":"PAYLOAD","status":"ACTIVE","operator":null,"country":"US","launch_date":"2021-05-09","launch_site_code":"AFETR","launch_vehicle":null,"mission":null,"orbit_class":"UNKNOWN","rcs_meters":null,"size_class":null,"mass_kg":null,"dimensions":null,"purposes":["comms"],"wikipedia_slug":null,"has_3d_model":false,"image_url":null,"decayed_at":null,"tle_current":{"epoch":"2026-05-25T01:06:09.227232Z","epoch_age_seconds":64226,"freshness":"FRESH","line1":"1 48433U 21040F   26145.04594013  .00002426  00000+0  89879-4 0  9991","line2":"2 48433  53.1571 157.4757 0001240  78.2577 281.8563 15.31714066278728","mean_motion":15.31714066,"eccentricity":0.000124,"inclination_deg":53.1571,"raan_deg":157.4757,"arg_perigee_deg":78.2577,"mean_anomaly_deg":281.8563,"bstar":8.9879e-5,"rev_number":27872,"period_min":94.012324621428,"perigee_km":469.84880998433,"apogee_km":471.54732108058,"semimajor_km":6848.8350655325,"source":"CELESTRAK","updated_at":"2026-05-25T13:38:16.714453Z"}}}